Flag for United Kingdom Weather past 2 weeks in Bradford, England, United Kingdom

Now
45 °F

Passing clouds.


Feels Like: 36 °F
Forecast: 43 / 56 °F
Wind: 21 mph from Southwest

Location: Leeds And Bradford

Current Time: Mar 7, 2015 at 2:33:59 AM

Latest Report: Mar 7, 2015 at 2:20 AM


Visibility: N/A

Pressure: 30.04 "Hg

Humidity: 93%

Dew point: 43 °F

Location of BradfordLocation

Historic Weather in Bradford — Graph

°F

Bradford temperature yesterday

Maximum temperature yesterday: 54 °F (at 3:20 PM)
Minimum temperature yesterday: 43 °F (at 12:20 AM)
Average temperature yesterday: 46 °F

Past Weeks' High & Low Weather Summary

 TemperatureHumidityPressure
High54 °F (Mar 6, 3:20 PM)100% (Feb 20, 1:20 AM)30.57 "Hg (Feb 20, 1:20 AM)
Low32 °F (Feb 21, 6:50 AM)44% (Mar 6, 4:20 PM)28.91 "Hg (Feb 23, 6:20 PM)
Average40 °F85%29.72 "Hg
* Reported Feb 20 1:20 AM — Mar 7 1:20 AM, Bradford, Weather by CustomWeather, © 2015

Note: Actual official high and low records may vary slightly from our data, if they occured in-between our weather recording intervals... More about our weather records

Advertising

Bradford weather history for previous 24 hours

 ConditionsComfort  
Time TempWeatherWind HumidityBarometerVisibility
1:20 AM
Sat, Mar 7
45 °FPassing clouds.18 mph87%30.07 "HgN/A
12:50 AM45 °FPassing clouds.22 mph87%30.07 "HgN/A
12:20 AM45 °FPassing clouds.17 mph87%30.09 "HgN/A
11:50 PM
Fri, Mar 6
45 °FPassing clouds.13 mph87%30.12 "HgN/A
11:20 PM45 °FPassing clouds.17 mph87%30.12 "HgN/A
10:50 PM45 °FPassing clouds.18 mph87%30.12 "HgN/A
10:20 PM45 °FPassing clouds.17 mph81%30.12 "HgN/A
9:50 PM45 °FPassing clouds.21 mph81%30.12 "HgN/A
9:20 PM45 °FClear.20 mph81%30.15 "Hg10 mi
8:50 PM46 °FClear.22 mph76%30.15 "Hg10 mi
8:20 PM46 °FPassing clouds.17 mph76%30.15 "HgN/A
7:50 PM46 °FPassing clouds.18 mph76%30.18 "HgN/A
7:20 PM46 °FPassing clouds.15 mph76%30.18 "HgN/A
6:50 PM46 °FClear.14 mph82%30.21 "Hg10 mi
6:20 PM48 °FPassing clouds.15 mph50%30.21 "HgN/A
5:50 PM48 °FSunny.14 mph50%30.21 "Hg10 mi
5:20 PM50 °FSunny.18 mph47%30.18 "Hg10 mi
4:50 PM52 °FSunny.18 mph47%30.18 "Hg10 mi
4:20 PM54 °FPassing clouds.16 mph44%30.21 "HgN/A
3:50 PM54 °FPassing clouds.17 mph51%30.21 "HgN/A
3:20 PM54 °FPassing clouds.16 mph54%30.24 "HgN/A
2:50 PM52 °FPassing clouds.18 mph58%30.24 "HgN/A
2:20 PM52 °FPassing clouds.16 mph58%30.27 "HgN/A
1:50 PM52 °FPassing clouds.16 mph58%30.27 "HgN/A
1:20 PM52 °FPassing clouds.22 mph62%30.30 "HgN/A
12:50 PM50 °FPassing clouds.21 mph67%30.33 "HgN/A
12:20 PM48 °FScattered clouds.16 mph66%30.33 "HgN/A
11:50 AM48 °FScattered clouds.18 mph66%30.33 "HgN/A
11:20 AM48 °FScattered clouds.17 mph66%30.33 "HgN/A
10:50 AM46 °FScattered clouds.18 mph71%30.33 "HgN/A
10:20 AM45 °FScattered clouds.17 mph76%30.36 "HgN/A
9:50 AM45 °FScattered clouds.17 mph76%30.36 "HgN/A
9:20 AM45 °FScattered clouds.15 mph76%30.39 "HgN/A
8:50 AM45 °FScattered clouds.16 mph76%30.39 "HgN/A
8:20 AM43 °FScattered clouds.14 mph81%30.42 "HgN/A
7:50 AM43 °FScattered clouds.15 mph81%30.42 "HgN/A
7:20 AM43 °FPartly sunny.13 mph81%30.42 "HgN/A
6:50 AM43 °FPartly sunny.13 mph81%30.42 "HgN/A
6:20 AM43 °FPassing clouds.12 mph81%30.42 "HgN/A
5:50 AM43 °FPassing clouds.13 mph81%30.42 "HgN/A
5:20 AM43 °FPassing clouds.16 mph76%30.42 "HgN/A
4:50 AM43 °FClear.21 mph76%30.42 "Hg10 mi
4:20 AM43 °FClear.16 mph81%30.42 "Hg10 mi
3:50 AM43 °FPassing clouds.16 mph76%30.39 "HgN/A
3:20 AM43 °FClear.15 mph81%30.42 "Hg10 mi
2:50 AM43 °FPassing clouds.16 mph81%30.42 "HgN/A
2:20 AM43 °FPassing clouds.20 mph81%30.42 "HgN/A
Weather by CustomWeather, © 2015

See weather overviewHow to use our weather pages